Evergreen, AL

6:58 PM CST on November 20, 2019 (GMT -0600)
Middleton

Weather History for KGZH - October, 2019

Change the Weather History Date:

Sunday, October 20, 2019

  Actual Average (KPRN) Record (KPRN)
Temperature  
Mean Temperature 72 °F -  
Max Temperature 82 °F 77 °F 93 °F (2016)
Min Temperature 62 °F 50 °F 30 °F (1989)
Cooling Degree Days 7    
Growing Degree Days 22 (Base 50)    
Moisture  
Dew Point 61 °F    
Average Humidity 78    
Maximum Humidity 90    
Minimum Humidity 51    
Precipitation  
Precipitation 0.00 in - - ()
Sea Level Pressure  
Sea Level Pressure 29.92 in    
Wind  
Wind Speed 0 mph (ENE)    
Max Wind Speed 5 mph    
Max Gust Speed -    
Visibility 8 miles    
Events      
Averages and records for this station are not official NWS values.
T = Trace of Precipitation, MM = Missing Value Source: NWS Daily Summary

Daily Weather History Graph

Daily Weather History Graph

Search for Another Location

Airport or City:

Astronomy

Oct. 20, 2019 Rise Set
Actual Time 6:54 AM CDT 6:10 PM CDT
Civil Twilight 6:29 AM CDT 6:35 PM CDT
Nautical Twilight 6:01 AM CDT 7:03 PM CDT
Astronomical Twilight 5:33 AM CDT 7:31 PM CDT
Moon 11:33 PM CDT (10/20) 1:07 PM CDT (10/20)
Length of Visible Light 12h 05m
Length of Day
11h 16m
Waning Gibbous, 59% of the Moon is Illuminated
Oct 20
Waning Gibbous
Oct 21
Last Quarter
Oct 27
New
Nov 4
First Quarter
Nov 12
Full

Hourly Weather History & Observations

Time (CDT) Temp. Heat Index Dew Point Humidity Pressure Visibility Wind Dir Wind Speed Gust Speed Precip Events Conditions
12:53 AM 66.9 °F - 60.1 °F 79% 29.81 in 10.0 mi Calm Calm - N/A   Overcast
1:53 AM 64.9 °F - 61.0 °F 87% 29.82 in 10.0 mi Calm Calm - N/A   Overcast
2:53 AM 64.9 °F - 61.0 °F 87% 29.83 in 10.0 mi Calm Calm - N/A   Overcast
3:53 AM 64.9 °F - 60.1 °F 84% 29.84 in 10.0 mi Calm Calm - N/A   Overcast
4:01 AM 64.9 °F - 60.1 °F 84% 29.85 in 10.0 mi Calm Calm - N/A   Overcast
4:53 AM 64.9 °F - 60.1 °F 84% 29.86 in 10.0 mi North 3.5 mph - N/A   Overcast
5:29 AM 64.9 °F - 60.1 °F 84% 29.88 in 10.0 mi Calm Calm - N/A   Overcast
5:53 AM 64.0 °F - 59.0 °F 84% 29.88 in 10.0 mi Calm Calm - N/A   Mostly Cloudy
6:04 AM 63.0 °F - 59.0 °F 87% 29.89 in 7.0 mi Calm Calm - N/A   Scattered Clouds
6:22 AM 62.1 °F - 57.9 °F 86% 29.90 in 2.5 mi Calm Calm - N/A   Scattered Clouds
6:24 AM 62.1 °F - 57.9 °F 86% 29.90 in 3.0 mi Calm Calm - N/A   Mostly Cloudy
6:53 AM 63.0 °F - 59.0 °F 87% 29.91 in 10.0 mi Calm Calm - N/A   Overcast
7:28 AM 64.9 °F - 60.1 °F 84% 29.93 in 10.0 mi Calm Calm - N/A   Overcast
7:53 AM 64.9 °F - 60.1 °F 84% 29.93 in 10.0 mi Calm Calm - N/A   Overcast
8:17 AM 64.9 °F - 60.1 °F 84% 29.94 in 7.0 mi Calm Calm - N/A   Overcast
8:53 AM 66.0 °F - 61.0 °F 84% 29.95 in 9.0 mi Calm Calm - N/A   Overcast
9:53 AM 66.9 °F - 61.0 °F 81% 29.96 in 8.0 mi Calm Calm - N/A   Overcast
10:53 AM 70.0 °F - 62.1 °F 76% 29.97 in 10.0 mi Calm Calm - N/A   Overcast
11:35 AM 71.1 °F - 63.0 °F 75% 29.98 in 10.0 mi Calm Calm - N/A   Overcast
11:53 AM 73.9 °F - 63.0 °F 68% 29.96 in 10.0 mi North 3.5 mph - N/A   Mostly Cloudy
12:29 PM 75.0 °F - 63.0 °F 66% 29.96 in 10.0 mi Calm Calm - N/A   Mostly Cloudy
12:53 PM 75.9 °F - 62.1 °F 62% 29.94 in 10.0 mi Calm Calm - N/A   Partly Cloudy
1:53 PM 81.0 °F 82.2 °F 63.0 °F 54% 29.93 in 10.0 mi Calm Calm - N/A   Partly Cloudy
2:53 PM 82.0 °F 83.0 °F 62.1 °F 51% 29.91 in 10.0 mi Variable 4.6 mph - N/A   Clear
3:53 PM 82.0 °F 83.0 °F 62.1 °F 51% 29.92 in 10.0 mi Variable 3.5 mph - N/A   Partly Cloudy
4:53 PM 80.1 °F 81.2 °F 62.1 °F 54% 29.91 in 10.0 mi South 4.6 mph - N/A   Clear
5:53 PM 78.1 °F - 63.0 °F 60% 29.91 in 10.0 mi ESE 4.6 mph - N/A   Clear
6:53 PM 70.0 °F - 64.0 °F 81% 29.92 in 10.0 mi Calm Calm - N/A   Clear
8:53 PM 66.9 °F - 62.1 °F 84% 29.94 in 7.0 mi Calm Calm - N/A   Clear
9:53 PM 64.9 °F - 61.0 °F 87% 29.96 in 3.0 mi Calm Calm - N/A   Clear
10:53 PM 64.9 °F - 61.0 °F 87% 29.96 in 6.0 mi Calm Calm - N/A   Clear
11:20 PM 64.0 °F - 60.1 °F 87% 29.97 in 2.0 mi Calm Calm - N/A   Clear
11:30 PM 63.0 °F - 60.1 °F 90% 29.96 in 6.0 mi Calm Calm - N/A   Clear
11:53 PM 63.0 °F - 60.1 °F 90% 29.95 in 4.0 mi Calm Calm - N/A   Clear